PST,Max TemperatureF,Mean TemperatureF,Min TemperatureF,Max Dew PointF,MeanDew PointF,Min DewpointF,Max Humidity, Mean Humidity, Min Humidity, Max Sea Level PressureIn, Mean Sea Level PressureIn, Min Sea Level PressureIn, Max VisibilityMiles, Mean VisibilityMiles, Min VisibilityMiles, Max Wind SpeedMPH, Mean Wind SpeedMPH, Max Gust SpeedMPH,PrecipitationIn, CloudCover, Events, WindDirDegrees
2012-11-1,71,58,46,52,47,39,94,62,38,30.03,29.98,29.94,5,4,2,8,3,,0.00,5,,245
2012-11-2,69,61,53,46,46,45,77,54,40,30.02,29.97,29.92,7,4,2,8,2,,0.00,2,,234
2012-11-3,84,64,44,43,35,28,76,35,14,30.07,30.03,29.98,10,9,5,9,2,,0.00,1,,239
2012-11-4,89,71,53,30,25,21,35,15,9,30.12,30.08,30.03,10,10,10,6,1,,0.00,0,,236
2012-11-5,91,73,55,28,27,25,31,15,10,30.13,30.06,30.01,10,10,7,7,1,,0.00,0,,329
2012-11-6,87,62,37,54,35,28,75,28,12,30.12,30.06,30.01,10,9,7,12,2,,0.00,0,,250
2012-11-7,80,64,48,48,41,34,66,40,20,30.08,30.00,29.95,10,8,5,10,3,,0.00,1,,245
2012-11-8,64,60,55,55,51,48,100,73,56,29.99,29.93,29.88,10,5,3,12,6,,0.00,7,Rain,234
2012-11-9,59,55,50,45,40,36,76,59,42,29.94,29.90,29.86,10,9,7,14,5,18,0.00,6,,220
2012-11-10,59,52,44,39,29,19,76,43,26,30.12,30.04,29.99,10,10,10,15,5,22,0.00,3,,247
2012-11-11,64,48,33,27,17,14,75,24,15,30.29,30.24,30.07,10,10,10,6,1,,0.00,0,,265
2012-11-12,69,52,35,28,18,14,70,25,12,30.29,30.19,30.11,10,10,10,9,1,,0.00,0,,85
2012-11-13,82,62,42,30,19,10,53,21,8,30.15,30.08,30.03,10,10,10,8,2,,0.00,0,,8
2012-11-14,80,62,44,43,24,16,57,24,9,30.10,30.05,30.00,10,10,10,6,1,,0.00,3,,214
2012-11-15,69,58,48,34,25,12,58,26,12,30.12,30.08,30.05,10,10,10,9,2,,0.00,8,,222
2012-11-16,71,62,53,41,35,32,58,36,25,30.13,30.07,30.02,10,10,10,9,2,,0.00,6,,225
2012-11-17,68,62,55,55,52,48,94,70,56,30.12,30.08,30.04,10,9,5,9,4,,0.00,7,Rain,251
2012-11-18,68,60,53,54,49,45,82,64,43,30.16,30.13,30.10,10,10,10,13,2,,0.00,6,,255
2012-11-19,69,56,44,48,44,39,87,57,35,30.26,30.20,30.15,10,8,5,7,4,,0.00,1,,225
2012-11-20,73,58,42,48,38,34,76,46,23,30.16,30.10,30.03,10,10,10,10,2,,0.00,0,,252
2012-11-21,71,58,44,46,41,37,76,48,31,30.11,30.07,30.02,10,10,10,6,2,,0.00,0,,237
2012-11-22,80,61,42,41,38,36,81,42,20,30.12,30.08,30.03,10,10,10,9,1,,0.00,0,,230
2012-11-23,82,64,46,36,30,27,66,25,13,30.19,30.13,30.08,10,10,10,7,0,,0.00,0,,230
2012-11-24,87,68,48,32,29,27,54,23,13,30.11,30.04,29.95,10,10,10,7,1,,0.00,0,,250
2012-11-25,78,63,48,46,35,30,62,36,17,29.97,29.92,29.88,10,10,7,8,1,,0.00,0,,252
2012-11-26,71,60,48,50,47,43,100,65,35,30.10,30.05,30.01,7,5,0,9,1,,0.00,3,Fog,230
2012-11-27,77,60,44,50,40,32,81,50,21,30.18,30.10,30.04,10,9,5,9,1,,0.00,5,,235
2012-11-28,64,57,50,50,48,46,94,70,52,30.21,30.16,30.12,5,3,2,10,2,,0.00,6,,246
2012-11-29,64,56,48,55,53,37,100,83,66,30.23,30.18,30.15,7,5,2,7,2,,0.00,8,,258
2012-11-30,66,62,57,59,57,55,100,88,68,30.17,30.13,30.07,7,5,0,7,2,,0.00,7,Rain,112